Weather History for KSHL - November, 2013

Change the Weather History Date:

Friday, November 29, 2013

  Actual Average Record
Temperature  
Mean Temperature 24 °F -  
Max Temperature 39 °F 34 °F 62 °F (1998)
Min Temperature 8 °F 17 °F -5 °F (1976)
Degree Days  
Heating Degree Days 42    
Moisture  
Dew Point 20 °F    
Average Humidity 91    
Maximum Humidity 100    
Minimum Humidity 60    
Precipitation  
Precipitation 0.00 in - - ()
Sea Level Pressure  
Sea Level Pressure 30.27 in    
Wind  
Wind Speed 9 mph (SSE)    
Max Wind Speed 23 mph    
Max Gust Speed 29 mph    
Visibility 10 miles    
Events      
Averages and records for this station are not official NWS values.
T = Trace of Precipitation, MM = Missing Value Source: NWS Daily Summary

Daily Weather History Graph

Daily Weather History Graph

Search for Another Location

Airport or City:

Trip Planner

Search our weather history database for the weather conditions in past years. The results will help you decide how hot, cold, wet, or windy it might be!

Date:

Astronomy

Nov. 29, 2013 Rise Set
Actual Time 7:33 AM CST 4:49 PM CST
Civil Twilight 7:01 AM CST 5:21 PM CST
Nautical Twilight 6:26 AM CST 5:56 PM CST
Astronomical Twilight 5:52 AM CST 6:31 PM CST
Moon 3:34 AM CST (11/29) 2:39 PM CST (11/29)
Length of Visible Light 10h 19m
Length of Day
9h 16m
Waning Crescent, 14% of the Moon is Illuminated
Nov 29
Waning Crescent
Dec 2
New
Dec 9
First Quarter
Dec 17
Full
Dec 25
Last Quarter

Hourly Weather History & Observations

Time (CST) Temp. Windchill Dew Point Humidity Pressure Visibility Wind Dir Wind Speed Gust Speed Precip Events Conditions
12:15 AM 8.6 °F 2.0 °F 8.6 °F 100% 30.45 in 10.0 mi SE 3.5 mph - N/A   Clear
12:35 AM 10.4 °F 4.0 °F 10.4 °F 100% 30.45 in 10.0 mi SE 3.5 mph - N/A   Clear
12:55 AM 10.4 °F - 10.4 °F 100% 30.44 in 10.0 mi Calm Calm - N/A   Clear
1:15 AM 8.6 °F 2.0 °F 8.6 °F 100% 30.44 in 10.0 mi ESE 3.5 mph - N/A   Clear
1:35 AM 8.6 °F 2.0 °F 8.6 °F 100% 30.44 in 10.0 mi SE 3.5 mph - N/A   Clear
1:55 AM 10.4 °F 2.2 °F 10.4 °F 100% 30.45 in 10.0 mi SE 4.6 mph - N/A   Partly Cloudy
2:15 AM 8.6 °F 0.1 °F 8.6 °F 100% 30.45 in 10.0 mi ESE 4.6 mph - N/A   Clear
2:35 AM 8.6 °F 0.1 °F 8.6 °F 100% 30.45 in 10.0 mi SE 4.6 mph - N/A   Partly Cloudy
2:55 AM 10.4 °F 0.8 °F 8.6 °F 92% 30.44 in 10.0 mi ESE 5.8 mph - N/A   Partly Cloudy
3:15 AM 10.4 °F 2.2 °F 10.4 °F 100% 30.44 in 10.0 mi SE 4.6 mph - N/A   Partly Cloudy
3:35 AM 10.4 °F 0.8 °F 10.4 °F 100% 30.43 in 10.0 mi SE 5.8 mph - N/A   Partly Cloudy
3:55 AM 10.4 °F 2.2 °F 10.4 °F 100% 30.43 in 10.0 mi SE 4.6 mph - N/A   Partly Cloudy
4:15 AM 10.4 °F - 10.4 °F 100% 30.42 in 10.0 mi Calm Calm - N/A   Partly Cloudy
4:35 AM 10.4 °F 4.0 °F 10.4 °F 100% 30.42 in 10.0 mi SE 3.5 mph - N/A   Partly Cloudy
4:55 AM 12.2 °F 0.7 °F 12.2 °F 100% 30.41 in 10.0 mi SSE 8.1 mph - N/A   Partly Cloudy
5:15 AM 14.0 °F -0.2 °F 12.2 °F 93% 30.40 in 10.0 mi SSE 12.7 mph - N/A   Partly Cloudy
5:35 AM 14.0 °F 0.5 °F 12.2 °F 93% 30.40 in 10.0 mi SSE 11.5 mph - N/A   Partly Cloudy
5:55 AM 14.0 °F 1.2 °F 12.2 °F 93% 30.39 in 10.0 mi SSE 10.4 mph - N/A   Partly Cloudy
6:15 AM 14.0 °F 1.2 °F 12.2 °F 93% 30.39 in 10.0 mi SSE 10.4 mph - N/A   Partly Cloudy
6:35 AM 14.0 °F 0.5 °F 12.2 °F 93% 30.38 in 10.0 mi SSE 11.5 mph - N/A   Partly Cloudy
6:55 AM 14.0 °F 2.0 °F 12.2 °F 93% 30.38 in 10.0 mi SSE 9.2 mph - N/A   Mostly Cloudy
7:15 AM 14.0 °F 0.5 °F 12.2 °F 93% 30.38 in 10.0 mi SSE 11.5 mph - N/A   Scattered Clouds
7:35 AM 15.8 °F 2.7 °F 12.2 °F 86% 30.37 in 10.0 mi SSE 11.5 mph - N/A   Clear
7:55 AM 15.8 °F 2.7 °F 14.0 °F 93% 30.37 in 10.0 mi SSE 11.5 mph - N/A   Clear
8:15 AM 15.8 °F 2.1 °F 14.0 °F 93% 30.37 in 10.0 mi SSE 12.7 mph - N/A   Clear
8:35 AM 17.6 °F 6.4 °F 15.8 °F 93% 30.37 in 10.0 mi SSE 9.2 mph - N/A   Clear
8:55 AM 19.4 °F 7.9 °F 19.4 °F 100% 30.37 in - SSE 10.4 mph - N/A   Unknown
9:15 AM 19.4 °F 7.2 °F 15.8 °F 86% 30.36 in 10.0 mi SSE 11.5 mph - N/A   Clear
9:35 AM 21.2 °F 7.8 °F 19.4 °F 93% 30.36 in 10.0 mi South 15.0 mph - N/A   Clear
9:55 AM 24.8 °F 12.4 °F 24.8 °F 100% 30.36 in 10.0 mi South 15.0 mph 21.9 mph N/A   Clear
10:15 AM 26.6 °F 14.3 °F 26.6 °F 100% 30.36 in 10.0 mi SSE 16.1 mph 23.0 mph N/A   Clear
10:35 AM 26.6 °F 13.1 °F - N/A% 30.35 in 10.0 mi South 19.6 mph - N/A   Clear
10:55 AM 28.4 °F 15.8 °F - N/A% 30.34 in 10.0 mi South 18.4 mph 26.5 mph N/A   Clear
11:15 AM 28.4 °F 15.8 °F - N/A% 30.32 in 10.0 mi South 18.4 mph 26.5 mph N/A   Clear
11:35 AM 30.2 °F 18.1 °F - N/A% 30.31 in 10.0 mi South 18.4 mph 27.6 mph N/A   Clear
11:55 AM 30.2 °F 19.8 °F - N/A% 30.30 in 10.0 mi South 13.8 mph 24.2 mph N/A   Clear
12:15 PM 32.0 °F 20.8 °F - N/A% 30.28 in 10.0 mi South 17.3 mph - N/A   Clear
12:35 PM 32.0 °F 20.5 °F 30.2 °F 93% 30.26 in 10.0 mi South 18.4 mph 24.2 mph N/A   Clear
12:55 PM 33.8 °F 22.2 °F 21.2 °F 60% 30.24 in 10.0 mi South 20.7 mph 28.8 mph N/A   Clear
1:15 PM 35.6 °F 24.8 °F 32.0 °F 87% 30.23 in 10.0 mi South 19.6 mph - N/A   Clear
1:35 PM 33.8 °F 22.5 °F 24.8 °F 70% 30.22 in 10.0 mi South 19.6 mph 25.3 mph N/A   Clear
1:55 PM 35.6 °F 25.9 °F 26.6 °F 70% 30.20 in 10.0 mi SSE 16.1 mph 24.2 mph N/A   Clear
2:15 PM 37.4 °F 26.9 °F 32.0 °F 81% 30.19 in 10.0 mi South 20.7 mph - N/A   Clear
2:35 PM 39.2 °F 29.3 °F - N/A% 30.18 in 10.0 mi South 20.7 mph - N/A   Clear
2:55 PM 37.4 °F 26.4 °F - N/A% 30.16 in 10.0 mi SSE 23.0 mph - N/A   Clear
3:15 PM 37.4 °F 26.6 °F - N/A% 30.15 in 10.0 mi South 21.9 mph 27.6 mph N/A   Clear
3:35 PM 37.4 °F 26.6 °F - N/A% 30.15 in 10.0 mi South 21.9 mph 28.8 mph N/A   Clear
3:55 PM 35.6 °F 24.8 °F 35.6 °F 100% 30.14 in 10.0 mi SSE 19.6 mph 26.5 mph N/A   Clear
4:15 PM 33.8 °F 23.5 °F 33.8 °F 100% 30.13 in 10.0 mi SSE 16.1 mph 24.2 mph N/A   Clear
4:35 PM 33.8 °F 25.3 °F 33.8 °F 100% 30.13 in 10.0 mi SSE 11.5 mph - N/A   Clear
4:55 PM 32.0 °F 22.5 °F 32.0 °F 100% 30.12 in 10.0 mi SSE 12.7 mph - N/A   Clear
5:15 PM 32.0 °F 23.0 °F 23.0 °F 69% 30.12 in 10.0 mi SSE 11.5 mph - N/A   Clear
5:35 PM 30.2 °F 21.3 °F 23.0 °F 75% 30.12 in 10.0 mi SSE 10.4 mph - N/A   Clear
5:55 PM 32.0 °F 23.0 °F 24.8 °F 75% 30.11 in - SSE 11.5 mph - N/A   Clear
6:15 PM 32.0 °F 22.1 °F 24.8 °F 75% 30.11 in 10.0 mi South 13.8 mph - N/A   Clear
6:35 PM 32.0 °F 23.0 °F 24.8 °F 75% 30.12 in 10.0 mi South 11.5 mph - N/A   Clear
6:55 PM 32.0 °F 23.6 °F 24.8 °F 75% 30.13 in 10.0 mi South 10.4 mph - N/A   Clear
7:15 PM 32.0 °F 23.0 °F 24.8 °F 75% 30.12 in 10.0 mi South 11.5 mph - N/A   Clear
7:35 PM 30.2 °F 21.3 °F 24.8 °F 80% 30.12 in 10.0 mi SSE 10.4 mph - N/A   Clear
7:55 PM 30.2 °F 21.9 °F 24.8 °F 80% 30.12 in 10.0 mi SSE 9.2 mph - N/A   Clear
8:15 PM 30.2 °F 21.3 °F 24.8 °F 80% 30.12 in 10.0 mi SSE 10.4 mph - N/A   Clear
8:35 PM 28.4 °F 19.7 °F 24.8 °F 86% 30.11 in 10.0 mi SSE 9.2 mph - N/A   Clear
8:55 PM 28.4 °F 19.7 °F 24.8 °F 86% 30.11 in 10.0 mi SSE 9.2 mph - N/A   Clear
9:15 PM 28.4 °F 18.5 °F 26.6 °F 93% 30.10 in 10.0 mi SSE 11.5 mph - N/A   Clear
9:35 PM 28.4 °F 18.5 °F 26.6 °F 93% 30.09 in 10.0 mi South 11.5 mph - N/A   Clear
9:55 PM 28.4 °F 19.7 °F 28.4 °F 100% 30.09 in 10.0 mi South 9.2 mph - N/A   Clear
10:15 PM 28.4 °F 18.5 °F 28.4 °F 100% 30.08 in 10.0 mi South 11.5 mph - N/A   Clear
10:35 PM 28.4 °F 18.5 °F 28.4 °F 100% 30.08 in 10.0 mi South 11.5 mph - N/A   Clear
10:55 PM 28.4 °F 18.5 °F 26.6 °F 93% 30.07 in 10.0 mi South 11.5 mph - N/A   Clear
11:15 PM 28.4 °F 19.7 °F 23.0 °F 80% 30.07 in 10.0 mi South 9.2 mph - N/A   Clear
11:35 PM 28.4 °F 21.2 °F 28.4 °F 100% 30.07 in 10.0 mi South 6.9 mph - N/A   Clear
11:55 PM 28.4 °F 19.7 °F 28.4 °F 100% 30.07 in 10.0 mi South 9.2 mph - N/A   Clear